Overview Statistics Trail Chart Weather Telemetry Raw packets
 

This is the latest recevied weather packets stored in our database for station/object JH7UAX-10. If no packets are shown the sender has not sent any weather packets the latest 10 day(s).

<< 24 25 26 27 28 29 30 >>
Time Temp. Humidity Pressure Rain* Wind** Luminosity Snow
1787912955 20.56° C 84% 1023.4 hPa 0 mm - - -
1787912055 21.11° C 84% 1023.3 hPa 0 mm - - -
1787911156 21.11° C 85% 1022.8 hPa 0 mm - - -
1787910256 21.11° C 84% 1022.7 hPa 0 mm - - -
1787909354 21.67° C 83% 1022.5 hPa 0 mm - - -
1787908456 21.67° C 81% 1022.4 hPa 0 mm - - -
1787907556 22.22° C 80% 1022.3 hPa 0 mm - - -
1787905755 22.78° C 78% 1022 hPa 0 mm - - -
1787904870 23.33° C 76% 1022 hPa 0 mm - - -
1787903954 23.33° C 75% 1021.9 hPa 0 mm - - -
1787903055 23.89° C 74% 1021.9 hPa 0 mm - - -
1787902154 23.89° C 74% 1021.8 hPa 0 mm - - -
1787901254 24.44° C 74% 1021.6 hPa 0 mm - - -
1787900355 24.44° C 76% 1021.5 hPa 0 mm - - -
1787899456 24.44° C 74% 1021.4 hPa 0 mm - - -
1787898556 24.44° C 76% 1021.3 hPa 0 mm - - -
1787897655 24.44° C 75% 1021.3 hPa 0 mm - - -
1787896758 25° C 76% 1021.2 hPa 0 mm - - -
1787895856 25° C 75% 1020.9 hPa 0 mm - - -
1787894956 25.56° C 74% 1020.8 hPa 0 mm - - -
1787894056 25.56° C 72% 1020.8 hPa 0 mm - - -
1787893156 25.56° C 73% 1020.8 hPa 0 mm - - -
1787892256 25.56° C 76% 1020.8 hPa 0 mm - - -
1787891355 25.56° C 75% 1020.8 hPa 0 mm - - -
1787890456 25.56° C 75% 1020.8 hPa 0 mm - - -

* Rain latest hour (hover to see other rain measurements)
** Current wind speed in m/s (hover to see current wind gust speed)